This is the latest recevied weather packets stored in our database for station/object IT9RID. If no packets are shown the sender has not sent any weather packets the latest 10 day(s).
| Time | Temp. | Humidity | Pressure | Rain* | Wind** | Luminosity | Snow |
|---|---|---|---|---|---|---|---|
| 1787804227 | 26.67° C | 71% | 1016 hPa | 0 mm | - | - | - |
| 1787803627 | 26.67° C | 72% | 1016 hPa | 0 mm | - | - | - |
| 1787803026 | 26.67° C | 75% | 1016 hPa | 0 mm | - | - | - |
| 1787802426 | 26.67° C | 73% | 1016 hPa | 0 mm | - | - | - |
| 1787801827 | 26.67° C | 72% | 1015.7 hPa | 0 mm | - | - | - |
| 1787801226 | 26.67° C | 71% | 1015.5 hPa | 0 mm | - | - | - |
| 1787800626 | 26.67° C | 69% | 1015.5 hPa | 0 mm | - | - | - |
| 1787800025 | 26.67° C | 69% | 1015.5 hPa | 0 mm | - | - | - |
| 1787799426 | 27.22° C | 67% | 1015.5 hPa | 0 mm | - | - | - |
| 1787798825 | 27.78° C | 68% | 1015.4 hPa | 0 mm | - | - | - |
| 1787798226 | 27.22° C | 63% | 1015.4 hPa | 0 mm | - | - | - |
| 1787797625 | 27.22° C | 59% | 1015.3 hPa | 0 mm | - | - | - |
| 1787797025 | 27.22° C | 57% | 1015.1 hPa | 0 mm | - | - | - |
| 1787796425 | 27.22° C | 58% | 1014.9 hPa | 0 mm | - | - | - |
| 1787795825 | 27.22° C | 56% | 1014.7 hPa | 0 mm | - | - | - |
| 1787795224 | 27.22° C | 61% | 1014.5 hPa | 0 mm | - | - | - |
| 1787794628 | 27.22° C | 66% | 1014.5 hPa | 0 mm | - | - | - |
| 1787793424 | 27.22° C | 64% | 1015 hPa | 0 mm | - | - | - |
| 1787792824 | 27.78° C | 65% | 1015 hPa | 0 mm | - | - | - |
| 1787792223 | 27.78° C | 65% | 1014.9 hPa | 0 mm | - | - | - |
| 1787791623 | 27.78° C | 61% | 1015 hPa | 0 mm | - | - | - |
| 1787790423 | 28.33° C | 59% | 1015.1 hPa | 0 mm | - | - | - |
| 1787789824 | 28.89° C | 54% | 1015 hPa | 0 mm | - | - | - |
| 1787789223 | 28.33° C | 48% | 1015.2 hPa | 0 mm | - | - | - |
| 1787788623 | 28.89° C | 46% | 1015.1 hPa | 0 mm | - | - | - |
* Rain latest hour (hover to see other rain measurements)
** Current wind speed in m/s (hover to see current wind gust speed)